This is the latest recevied weather packets stored in our database for station/object JF7ELG-13. If no packets are shown the sender has not sent any weather packets the latest 10 day(s).
| Time | Temp. | Humidity | Pressure | Rain* | Wind** | Luminosity | Snow |
|---|---|---|---|---|---|---|---|
| 1778159021 | 15.56° C | 96% | 1005.7 hPa | 0 mm | - | - | - |
| 1778158098 | 15.56° C | 96% | 1005.7 hPa | 0 mm | - | - | - |
| 1778157219 | 15.56° C | 95% | 1005.8 hPa | 0 mm | - | - | - |
| 1778156312 | 16.11° C | 95% | 1006 hPa | 0 mm | - | - | - |
| 1778155413 | 16.11° C | 96% | 1005.9 hPa | 0 mm | - | - | - |
| 1778154521 | 16.11° C | 95% | 1006 hPa | 0 mm | - | - | - |
| 1778153608 | 16.11° C | 95% | 1005.9 hPa | 0 mm | - | - | - |
| 1778152698 | 16.67° C | 94% | 1005.8 hPa | 0 mm | - | - | - |
| 1778151811 | 16.67° C | 94% | 1005.9 hPa | 0 mm | - | - | - |
| 1778150908 | 16.67° C | 94% | 1005.8 hPa | 0 mm | - | - | - |
| 1778150031 | 17.22° C | 93% | 1005.7 hPa | 0 mm | - | - | - |
| 1778149106 | 17.22° C | 93% | 1005.8 hPa | 0 mm | - | - | - |
| 1778148219 | 17.78° C | 92% | 1005.7 hPa | 0 mm | - | - | - |
| 1778147307 | 18.33° C | 92% | 1005.7 hPa | 0 mm | - | - | - |
| 1778146402 | 18.33° C | 91% | 1005.6 hPa | 0 mm | - | - | - |
| 1778145534 | 18.89° C | 90% | 1005.7 hPa | 0 mm | - | - | - |
| 1778144628 | 18.89° C | 89% | 1005.7 hPa | 0 mm | - | - | - |
| 1778143697 | 18.89° C | 89% | 1005.8 hPa | 0 mm | - | - | - |
| 1778142818 | 19.44° C | 89% | 1005.7 hPa | 0 mm | - | - | - |
| 1778141924 | 19.44° C | 87% | 1005.8 hPa | 0 mm | - | - | - |
| 1778140998 | 20.56° C | 85% | 1006 hPa | 0 mm | - | - | - |
| 1778140096 | 21.11° C | 83% | 1006 hPa | 0 mm | - | - | - |
| 1778139216 | 21.67° C | 81% | 1006.1 hPa | 0 mm | - | - | - |
| 1778138310 | 22.22° C | 79% | 1006.2 hPa | 0 mm | - | - | - |
| 1778137422 | 22.78° C | 77% | 1006.3 hPa | 0 mm | - | - | - |
* Rain latest hour (hover to see other rain measurements)
** Current wind speed in m/s (hover to see current wind gust speed)